Location: Unspecified
(0.0000°N, 0.0000°E)
Time: 12:16:44
(UTC-04:00)

Hubble Space Telescope - Pass Details

Date: 04 October 2021
Orbit: 535 x 539 km, 28.5° (Epoch: 24 October)

Event Time Altitude Azimuth Distance (km) Brightness Sun altitude
Exits shadow 00:22:20 31° 353° (N) 938 1.8 -21.5°
Drops below altitude 10° 00:25:21 10° 36° (NE) 1,776 3.8 -20.8°
Sets 00:27:45 0° 46° (NE) 2,664 4.9 -20.2°
